Regional Weather Roundup
Issued by NWS Nashville, TN

Home | Current Version | Previous Version | Text Only | Print | Product List | Glossary On
Versions: 1 2 3 4 5 6 7 8 9 10 11 12 13 14 15 16 17 18 19 20 21 22 23 24 25 26 27
000
ASUS44 KOHX 300110
RWROHX
MIDDLE TENNESSEE HOURLY WEATHER ROUNDUP
NATIONAL WEATHER SERVICE NASHVILLE TN
800 PM CDT FRI APR 29 2016

NOTE: "FAIR" INDICATES FEW OR NO CLOUDS BELOW 12,000 FEET WITH
NO SIGNIFICANT WEATHER AND/OR OBSTRUCTIONS TO VISIBILITY.

* THESE REPORTS ARE NOT UNDER NWS QUALITY CONTROL AND MAY NOT
  REPORT WEATHER SUCH AS PRECIPITATION AND FOG.


TNZ005>011-023>034-057-059-062>066-078-080-300200
...NORTHERN MIDDLE TENNESSEE...

CITY           SKY/WX    TMP DP  RH WIND       PRES   REMARKS
CLARKSVILLE    CLOUDY    63  60  90 SE5       29.95S
CROSSVILLE     CLOUDY    72  49  44 N6        30.03F
NASHVILLE      CLOUDY    66  61  84 SE5       29.97R
SMYRNA         CLOUDY    68  61  78 S3        29.99R
SPARTA         CLEAR     66  61  82 CALM      29.99F
$$
TNZ056-058-060-061-075>077-079-093>097-300200
...SOUTHERN MIDDLE TENNESSEE...

CITY           SKY/WX    TMP DP  RH WIND       PRES   REMARKS
COLUMBIA         N/A    N/A N/A N/A CALM      29.95F
FAYETTEVILLE   CLOUDY    63  61  94 S10       30.02R
MCMINNVILLE    CLEAR     68  59  73 CALM      30.00F
SHELBYVILLE    PTCLDY    64  63  94 SE5       30.00S
TULLAHOMA      PTCLDY    64  61  88 SW3       30.02S
WINCHESTER     PTCLDY    70  57  64 CALM      30.02F
$$


...KEY TO REMARKS...
VSB - VISIBILITY IN MILES
WCI - WIND CHILL INDEX
HX  - HEAT INDEX





USA.gov is the U.S. government's official web portal to all federal, state and local government web resources and services.